Terug naar catalogus

ATLAS 28E DEB

ActiefPO
NORAD 20576·DEBRIS·🇺🇸 United States

Gelanceerd Apr 11, 1990 vanaf Vandenberg Space Force Base

Loading…

Volgende Passages (komende 24 uur)

TLE

VersSource: Space-Track

Epoch: Sep 14, 2026, 10:20 UTC

1 20576U 90031H   26257.43077554  .00010801  00000-0  32562-3 0  9991
2 20576  89.4103 261.7570 0024862 198.6069 161.4278 15.33889397400960

Volg ATLAS 28E DEB in realtime met AllMySat

Download on the App Store